Location: Wald
(31.7579°N, 86.6655°W)
Time: 12:17:14
(UTC+00:00)

BREEZE-M DEB (TANK) - Pass Details

Date: 14 July 2020
Orbit: 309 x 15750 km, 49.4° (Epoch: 08 August)

Event Time Altitude Azimuth Distance (km) Brightness Sun altitude
Rises 03:23:34 0° 311° (NW) 5,064 8.5 -25.8°
Reaches altitude 10° 03:28:47 10° 323° (NW) 2,669 6.8 -26.5°
Maximum altitude 03:32:53 23° 17° (NNE) 1,112 4.2 -27.0°
Enters shadow 03:32:54 23° 18° (NNE) 1,110 4.2 -27.0°
